Participated 1 time
in 2025
Stian Edvardsen Fredheim, Norway
Tour de France 2026 starts from Barcelona, Spain in

Stats and Facts from
Tour de France.

2026   2025   2024   2023  2022  2021  2020  2019   2018  2017   2016   2015  2014  2013   2012   2011  2010   2009   2008   2007   2006   2005   2004   2003   2002   2001   2000   1999   1998   1997  1996   1995   1994   1993   1992  1991   1990   1989   1988   1987   1986   1985   1984   1983  1982  1981   1980   1979  1978  1977   1976  1975  1974  1973   1972   1971   1970  1969   1968   1967   1966   1965  1964  1963   1962   1961   1960   1959   1958   1957  1956   1955   1954   1953   1952  1951  1950  1949   1948  1947  1939   1938   1937   1936   1935   1934   1933  1932   1931   1930  1929   1928   1927   1926  1925  1924  1923   1922   1921   1920   1919  1914   1913   1912   1911   1910  1909   1908   1907   1906  1905  1904   1903 

Tourstats
Sitemap

After stage 21 - 2025:
 16451 starters.
  5464 different riders.
  689 teams.
  2398 stages.
  470 restdays.
  466506.50 km.
  5925 abandoned riders.

Click map for 2012 route.
Facts from Tour de France 2012
  |   Stages.  |   Stage winners.  |   Days in jerseys.  |   Teams.  |   All riders.  |   All riders by age.  |   All riders from.  |  

  |   Rookies.  |   Withdrawls.  |   Average speed.  |   GC.  |   Polka  |   Green  |   White  |   Summits. (In tour)  |   Miscellaneous.  |  

Stage 7 on July 7th. 2012
Pick a stage:  Pro  1  2  3  4  5  6  7  8  9  10  11  12  13  14  15  16  17  18  19  20  

After stage 7:    Bradley Wiggins    Chris Froome    Peter Sagan    Tejay Van Garderen  
  TomblaineLa Planche des Belles Filles | Dist: 199.00km. | Winner: Chris Froome

Podium
3  Col de Grosse Pierre Chris Anker Sørensenafter112.00 km.

3  Mont de Fourche Chris Anker Sørensenafter150.50 km.

1  La Planche des Belles Filles Chris Froomeafter199.00 km.


Average speed for all riders in stage:  38,863 km./hr.

1
 Chris Froome  Sky Procycling04h 58' 35"=39,989  km/h

2
 Cadel Evans  BMC04h 58' 37"+  00:00:02 =39,984  km/h

3
 Bradley Wiggins  Sky Procycling04h 58' 37"+  00:00:02 =39,984  km/h

4  Vincenzo Nibali  Liquigas-Cannondale04h 58' 42"+  00:00:07 =39,973  km/h

5  Rein Taaramäe  Cofidis Le Credit En Ligne04h 58' 54"+  00:00:19 =39,946  km/h

6  Haimar  Zubeldía  Radioshack–Nissan04h 59' 19"+  00:00:44 =39,891  km/h

7  Pierre Rolland  Europcar04h 59' 21"+  00:00:46 =39,886  km/h

8  Janez Brajkovič  Astana Pro Team04h 59' 21"+  00:00:46 =39,886  km/h

9  Denis Menchov  Katusha04h 59' 25"+  00:00:50 =39,878  km/h

10  Maxime Monfort  Radioshack–Nissan04h 59' 31"+  00:00:56 =39,864  km/h

11  Nicolas Roche  AG2R La Mondiale04h 59' 41"+  00:01:06 =39,842  km/h

12  Fränk Schleck  Radioshack–Nissan04h 59' 44"+  00:01:09 =39,835  km/h

13  Richie Porte  Sky Procycling04h 59' 49"+  00:01:14 =39,824  km/h

14  Michael Rogers  Sky Procycling04h 59' 59"+  00:01:24 =39,802  km/h

15  Thibaut Pinot  FDJ – Big Mat04h 59' 59"+  00:01:24 =39,802  km/h

16  Samuel Sanchez  Euskaltel-Euskadi05h 00' 06"+  00:01:31 =39,787  km/h

17  Dan Martin  Garmin-Sharp-Barracuda05h 00' 14"+  00:01:39 =39,769  km/h

18  Gorka Izagirre  Euskaltel-Euskadi05h 00' 14"+  00:01:39 =39,769  km/h

19  Tony Gallopin  Radioshack–Nissan05h 00' 19"+  00:01:44 =39,758  km/h

20  Fabian Cancellara  Radioshack–Nissan05h 00' 27"+  00:01:52 =39,740  km/h

21  Jelle Vanendert  Lotto-Belisol05h 00' 27"+  00:01:52 =39,740  km/h

22  Jurgen Van Den Broeck  Lotto-Belisol05h 00' 27"+  00:01:52 =39,740  km/h

23  Rui Costa  Movistar05h 00' 27"+  00:01:52 =39,740  km/h

24  Thomas  Voeckler  Europcar05h 00' 40"+  00:02:05 =39,712  km/h

25  Michele Scarponi  Lampre-ISD05h 00' 40"+  00:02:05 =39,712  km/h

26  Alexandre Vinokourov  Astana Pro Team05h 00' 52"+  00:02:17 =39,685  km/h

27  Alejandro Valverde  Movistar05h 00' 54"+  00:02:19 =39,681  km/h

28  Rafael Valls Ferri  Vacansoleil-DCM05h 00' 54"+  00:02:19 =39,681  km/h

29  Bauke Mollema  Rabobank05h 00' 54"+  00:02:19 =39,681  km/h

30  Christopher Horner  Radioshack–Nissan05h 00' 54"+  00:02:19 =39,681  km/h

31  Pieter Weening  Orica-GreenEDGE05h 00' 54"+  00:02:19 =39,681  km/h

32  Andréas  Klöden  Radioshack–Nissan05h 00' 54"+  00:02:19 =39,681  km/h

33  Sylvain Chavanel  Omega Pharma – Quick Step05h 00' 59"+  00:02:24 =39,670  km/h

34  Vasil Kiryienka  Movistar05h 01' 07"+  00:02:32 =39,652  km/h

35  Peter Velits  Omega Pharma – Quick Step05h 01' 25"+  00:02:50 =39,613  km/h

36  Giampaolo Caruso  Katusha05h 01' 28"+  00:02:53 =39,606  km/h

37  Robert Gesink  Rabobank05h 01' 28"+  00:02:53 =39,606  km/h

38  Eduard Vorganov  Katusha05h 01' 28"+  00:02:53 =39,606  km/h

39  Sandy Casar  FDJ – Big Mat05h 01' 28"+  00:02:53 =39,606  km/h

40  Ivan Basso  Liquigas-Cannondale05h 01' 28"+  00:02:53 =39,606  km/h

41  Laurens Ten Dam  Rabobank05h 01' 28"+  00:02:53 =39,606  km/h

42  Robert Kišerlovski  Astana Pro Team05h 01' 28"+  00:02:53 =39,606  km/h

43  Brice Feillu  Saur-Sojasun05h 01' 38"+  00:03:03 =39,584  km/h

44  Jérôme Coppel  Saur-Sojasun05h 01' 38"+  00:03:03 =39,584  km/h

45  Marco Marzano  Lampre-ISD05h 01' 38"+  00:03:03 =39,584  km/h

46  Tejay Van Garderen  BMC05h 01' 43"+  00:03:08 =39,574  km/h

47  Andrey Kashechkin  Astana Pro Team05h 01' 46"+  00:03:11 =39,567  km/h

48  Levi Leipheimer  Omega Pharma – Quick Step05h 01' 46"+  00:03:11 =39,567  km/h

49  Vladimir Gusev  Katusha05h 01' 46"+  00:03:11 =39,567  km/h

50  Chris Anker Sørensen  Saxo Bank-Tinkoff Bank05h 02' 16"+  00:03:41 =39,502  km/h

51  David Moncoutié  Cofidis Le Credit En Ligne05h 02' 16"+  00:03:41 =39,502  km/h

52  Fabrice Jeandesboz  Saur-Sojasun05h 02' 33"+  00:03:58 =39,465  km/h

53  Mikaël Cherel  AG2R La Mondiale05h 02' 42"+  00:04:07 =39,445  km/h

54  Jean-Christophe Peraud  AG2R La Mondiale05h 02' 42"+  00:04:07 =39,445  km/h

55  Dominik Nerz  Liquigas-Cannondale05h 02' 42"+  00:04:07 =39,445  km/h

56  Fredrik Kessiakoff  Astana Pro Team05h 02' 42"+  00:04:07 =39,445  km/h

57  Christophe Riblon  AG2R La Mondiale05h 02' 42"+  00:04:07 =39,445  km/h

58  Egoi Martínez  Euskaltel-Euskadi05h 02' 47"+  00:04:12 =39,434  km/h

59  Steven Kruijswijk  Rabobank05h 02' 55"+  00:04:20 =39,417  km/h

60  Sylwester Szmyd  Liquigas-Cannondale05h 03' 03"+  00:04:28 =39,399  km/h

61  Christophe Kern  Europcar05h 03' 05"+  00:04:30 =39,395  km/h

62  Marco Marcato  Vacansoleil-DCM05h 03' 09"+  00:04:34 =39,386  km/h

63  Davide Malacarne  Europcar05h 03' 34"+  00:04:59 =39,332  km/h

64  Lieuwe Westra  Vacansoleil-DCM05h 03' 34"+  00:04:59 =39,332  km/h

65  Tony Martin  Omega Pharma – Quick Step05h 03' 36"+  00:05:01 =39,328  km/h

66  Philippe Gilbert  BMC05h 03' 43"+  00:05:08 =39,313  km/h

67  Jorge Azanza  Euskaltel-Euskadi05h 03' 43"+  00:05:08 =39,313  km/h

68  Jérémy Roy  FDJ – Big Mat05h 04' 06"+  00:05:31 =39,263  km/h

69  Giovanni Bernaudeau  Europcar05h 04' 22"+  00:05:47 =39,229  km/h

70  Martin Velits  Omega Pharma – Quick Step05h 04' 30"+  00:05:55 =39,212  km/h

71  Anthony Roux  FDJ – Big Mat05h 04' 33"+  00:05:58 =39,205  km/h

72  Matthieu Sprick  Argos–Shimano05h 04' 48"+  00:06:13 =39,173  km/h

73  Rémy Di Grégorio  Cofidis Le Credit En Ligne05h 05' 02"+  00:06:27 =39,143  km/h

74  Arthur Vichot  FDJ – Big Mat05h 05' 05"+  00:06:30 =39,137  km/h

75  Andriy Grivko  Astana Pro Team05h 05' 05"+  00:06:30 =39,137  km/h

76  Sérgio Paulinho  Saxo Bank-Tinkoff Bank05h 05' 10"+  00:06:35 =39,126  km/h

77  Dimitiri Fofonov  Astana Pro Team05h 05' 10"+  00:06:35 =39,126  km/h

78  Rubén Plaza  Movistar05h 05' 10"+  00:06:35 =39,126  km/h

79  Guillaume Levarlet  Saur-Sojasun05h 05' 40"+  00:07:05 =39,062  km/h

80  Jérôme Pineau  Omega Pharma – Quick Step05h 05' 51"+  00:07:16 =39,039  km/h

81  Maxime Bouet  AG2R La Mondiale05h 05' 57"+  00:07:22 =39,026  km/h

82  Edvald Boasson Hagen  Sky Procycling05h 06' 08"+  00:07:33 =39,003  km/h

83  Federico Canuti  Liquigas-Cannondale05h 06' 08"+  00:07:33 =39,003  km/h

84  Simone Stortoni  Lampre-ISD05h 06' 08"+  00:07:33 =39,003  km/h

85  Juan José Cobo  Movistar05h 06' 33"+  00:07:58 =38,950  km/h

86  Koen De Kort  Argos–Shimano05h 06' 33"+  00:07:58 =38,950  km/h

87  Marcus Burghardt  BMC05h 06' 35"+  00:08:00 =38,945  km/h

88  George Hincapie  BMC05h 06' 35"+  00:08:00 =38,945  km/h

89  Michael Schär  BMC05h 06' 35"+  00:08:00 =38,945  km/h

90  Anders Lund  Saxo Bank-Tinkoff Bank05h 07' 03"+  00:08:28 =38,886  km/h

91  Nicki Sørensen  Saxo Bank-Tinkoff Bank05h 07' 03"+  00:08:28 =38,886  km/h

92  Christian Knees  Sky Procycling05h 07' 34"+  00:08:59 =38,821  km/h

93  Simon Gerrans  Orica-GreenEDGE05h 07' 34"+  00:08:59 =38,821  km/h

94  Vincent Jérôme  Europcar05h 07' 34"+  00:08:59 =38,821  km/h

95  Amaël Moinard  BMC05h 07' 34"+  00:08:59 =38,821  km/h

96  Alessandro Vanotti  Liquigas-Cannondale05h 07' 38"+  00:09:03 =38,812  km/h

97  Pierrick  Fédrigo  FDJ – Big Mat05h 07' 38"+  00:09:03 =38,812  km/h

98  Kevin De Weert  Omega Pharma – Quick Step05h 07' 44"+  00:09:09 =38,800  km/h

99  Dries Devenyns  Omega Pharma – Quick Step05h 07' 44"+  00:09:09 =38,800  km/h

100  Stephen Cummings  BMC05h 07' 51"+  00:09:16 =38,785  km/h

101  Jean-Marc Marino  Saur-Sojasun05h 07' 55"+  00:09:20 =38,777  km/h

102  Yukiya  Arashiro  Europcar05h 08' 17"+  00:09:42 =38,731  km/h

103  Jens Voigt  Radioshack–Nissan05h 08' 23"+  00:09:48 =38,718  km/h

104  Michael Albasini  Orica-GreenEDGE05h 08' 42"+  00:10:07 =38,678  km/h

105  Michael Mørkøv  Saxo Bank-Tinkoff Bank05h 08' 50"+  00:10:15 =38,662  km/h

106  Francis De Greef  Lotto-Belisol05h 08' 53"+  00:10:18 =38,655  km/h

107  David Millar  Garmin-Sharp-Barracuda05h 08' 53"+  00:10:18 =38,655  km/h

108  Yury  Trofimov  Katusha05h 08' 53"+  00:10:18 =38,655  km/h

109  Roy Curvers  Argos–Shimano05h 08' 53"+  00:10:18 =38,655  km/h

110  Matthew Lloyd  Lampre-ISD05h 08' 53"+  00:10:18 =38,655  km/h

111  Bert Grabsch  Omega Pharma – Quick Step05h 09' 11"+  00:10:36 =38,618  km/h

112  Danilo Hondo  Lampre-ISD05h 09' 35"+  00:11:00 =38,568  km/h

113  Alessandro Petacchi  Lampre-ISD05h 09' 35"+  00:11:00 =38,568  km/h

114  Nick Nuyens  Saxo Bank-Tinkoff Bank05h 09' 35"+  00:11:00 =38,568  km/h

115  Ruben Perez  Euskaltel-Euskadi05h 09' 35"+  00:11:00 =38,568  km/h

116  Adam Hansen  Lotto-Belisol05h 09' 35"+  00:11:00 =38,568  km/h

117  Cyril Gautier  Europcar05h 09' 46"+  00:11:11 =38,545  km/h

118  Gregory Henderson  Lotto-Belisol05h 09' 51"+  00:11:16 =38,535  km/h

119  Daniel Oss  Liquigas-Cannondale05h 10' 36"+  00:12:01 =38,442  km/h

120  Peter Sagan  Liquigas-Cannondale05h 10' 36"+  00:12:01 =38,442  km/h

121  Julien Simon  Saur-Sojasun05h 11' 00"+  00:12:25 =38,392  km/h

122  Sébastien Minard  AG2R La Mondiale05h 11' 00"+  00:12:25 =38,392  km/h

123  Lars Bak  Lotto-Belisol05h 11' 00"+  00:12:25 =38,392  km/h

124  Cédric Pineau  FDJ – Big Mat05h 11' 00"+  00:12:25 =38,392  km/h

125  Luis Angel Mate  Cofidis Le Credit En Ligne05h 11' 00"+  00:12:25 =38,392  km/h

126  Romain Zingle  Cofidis Le Credit En Ligne05h 11' 00"+  00:12:25 =38,392  km/h

127  Yann Huguet  Argos–Shimano05h 11' 00"+  00:12:25 =38,392  km/h

128  Gustav-Erik Larsson  Vacansoleil-DCM05h 11' 00"+  00:12:25 =38,392  km/h

129  Kris Boeckmans  Vacansoleil-DCM05h 11' 00"+  00:12:25 =38,392  km/h

130  Nicolas Edet  Cofidis Le Credit En Ligne05h 11' 00"+  00:12:25 =38,392  km/h

131  Vladimir Karpets  Movistar05h 11' 00"+  00:12:25 =38,392  km/h

132  Samuel Dumoulin  Cofidis Le Credit En Ligne05h 11' 00"+  00:12:25 =38,392  km/h

133  Stuart O'Grady  Orica-GreenEDGE05h 11' 00"+  00:12:25 =38,392  km/h

134  Sébastien Hinault  AG2R La Mondiale05h 11' 00"+  00:12:25 =38,392  km/h

135  Maxim Iglinskiy  Astana Pro Team05h 11' 00"+  00:12:25 =38,392  km/h

136  Yaroslav Popovych  Radioshack–Nissan05h 11' 11"+  00:12:36 =38,370  km/h

137  Jürgen Roelandts  Lotto-Belisol05h 11' 13"+  00:12:38 =38,366  km/h

138  Luis León Sánchez  Rabobank05h 11' 13"+  00:12:38 =38,366  km/h

139  Christian Vandevelde  Garmin-Sharp-Barracuda05h 11' 52"+  00:13:17 =38,286  km/h

140  Rob Ruijgh  Vacansoleil-DCM05h 11' 52"+  00:13:17 =38,286  km/h

141  Patrick Gretsch  Argos–Shimano05h 11' 52"+  00:13:17 =38,286  km/h

142  David Zabriskie  Garmin-Sharp-Barracuda05h 11' 56"+  00:13:21 =38,277  km/h

143  Manuel Quinziato  BMC05h 12' 05"+  00:13:30 =38,259  km/h

144  Daryl Impey  Orica-GreenEDGE05h 12' 56"+  00:14:21 =38,155  km/h

145  Baden Cooke  Orica-GreenEDGE05h 12' 56"+  00:14:21 =38,155  km/h

146  Mark Cavendish  Sky Procycling05h 12' 56"+  00:14:21 =38,155  km/h

147  Sebastian Langeveld  Orica-GreenEDGE05h 12' 56"+  00:14:21 =38,155  km/h

148  Brett Lancaster  Orica-GreenEDGE05h 12' 56"+  00:14:21 =38,155  km/h

149  Joan Horrach  Katusha05h 12' 56"+  00:14:21 =38,155  km/h

150  Grega Bole  Lampre-ISD05h 12' 56"+  00:14:21 =38,155  km/h

151  Juan José Haedo  Saxo Bank-Tinkoff Bank05h 12' 56"+  00:14:21 =38,155  km/h

152  Pablo Urtasun  Euskaltel-Euskadi05h 12' 56"+  00:14:21 =38,155  km/h

153  Johnny Hoogerland  Vacansoleil-DCM05h 12' 56"+  00:14:21 =38,155  km/h

154  Yohann Gène  Europcar05h 13' 34"+  00:14:59 =38,078  km/h

155  Jan Ghyselinck  Cofidis Le Credit En Ligne05h 14' 36"+  00:16:01 =37,953  km/h

156  Yuriy Krivtsov  Lampre-ISD05h 15' 05"+  00:16:30 =37,895  km/h

157  Bram Tankink  Rabobank05h 16' 09"+  00:17:34 =37,767  km/h

158  Kenny van Hummel  Vacansoleil-DCM05h 16' 09"+  00:17:34 =37,767  km/h

159  Julien Fouchard  Cofidis Le Credit En Ligne05h 16' 09"+  00:17:34 =37,767  km/h

160  Borut Božič  Astana Pro Team05h 16' 09"+  00:17:34 =37,767  km/h

161  Marcel Sieberg  Lotto-Belisol05h 16' 09"+  00:17:34 =37,767  km/h

162  André Greipel  Lotto-Belisol05h 16' 09"+  00:17:34 =37,767  km/h

163  Kristjan Koren  Liquigas-Cannondale05h 16' 09"+  00:17:34 =37,767  km/h

164  Albert Timmer  Argos–Shimano05h 16' 09"+  00:17:34 =37,767  km/h

165  Yauheni Hutarovich  FDJ – Big Mat05h 16' 09"+  00:17:34 =37,767  km/h

166  Johannes Fröhlinger  Argos–Shimano05h 16' 09"+  00:17:34 =37,767  km/h

167  Bernhard Eisel  Sky Procycling05h 16' 09"+  00:17:34 =37,767  km/h

168  Matthieu Ladagnous  FDJ – Big Mat05h 16' 09"+  00:17:34 =37,767  km/h

169  Blel Kadri  AG2R La Mondiale05h 16' 09"+  00:17:34 =37,767  km/h

170  Mark Renshaw  Rabobank05h 16' 09"+  00:17:34 =37,767  km/h

171  Matthew Goss  Orica-GreenEDGE05h 16' 09"+  00:17:34 =37,767  km/h

172  Jonathan Cantwell  Saxo Bank-Tinkoff Bank05h 16' 09"+  00:17:34 =37,767  km/h

173  Aliaksandr Kuchynski  Katusha05h 16' 09"+  00:17:34 =37,767  km/h

174  Tom Veelers  Argos–Shimano05h 16' 09"+  00:17:34 =37,767  km/h

175  Cyril Lemoine  Saur-Sojasun05h 16' 09"+  00:17:34 =37,767  km/h

176  Jimmy Engoulvent  Saur-Sojasun05h 16' 09"+  00:17:34 =37,767  km/h

177  Karsten Kroon  Saxo Bank-Tinkoff Bank05h 16' 16"+  00:17:41 =37,753  km/h

178  Luca Paolini  Katusha05h 16' 17"+  00:17:42 =37,751  km/h

179  Johan Vansummeren  Garmin-Sharp-Barracuda05h 16' 24"+  00:17:49 =37,737  km/h

180  Tyler Farrar  Garmin-Sharp-Barracuda05h 19' 04"+  00:20:29 =37,422  km/h

181  Gorka Verdugo  Euskaltel-Euskadi05h 19' 04"+  00:20:29 =37,422  km/h


Withdrawls: 9
 RiderTeamReason
37   Amets Txurruka Euskaltel-EuskadiDid not start
61   Ryder Hesjedal Garmin-Sharp-BarracudaDid not start
64   Robert Hunter Garmin-Sharp-BarracudaDid not start
74   Hubert Dupont AG2R La MondialeDid not start
133   Óscar Freire KatushaDid not start
159   Maarten Wynants RabobankDid not start
164   Imanol Erviti MovistarDid not start
165   José Ivan Gutierrez MovistarDid not start
92   Anthony Delaplace Saur-SojasunDid not finish
Todays birthdays.

1884 • Vincenzo Borgarello
1889 • Emile Bonnefoi
1889 • Auguste Denizot
1890 • Maurice Petit
1904 • Pierino Ferioli
1905 • Vincent Carrara
1910 • Antoon Van Schendel
1925 • Georges Meunier
1945 • Gérard Besnard
1950 • Wim Kelleners
1960 • Ivan Ivanov
1960 • Pierre-Henri Menthéour
1962 • Giovanni Bottoia
1964 • Flavio Giupponi
1974 • Benoit Salmon
1977 • Iñigo Landaluze
1977 • Svein Tuft
1979 • Rubens Bertogliati
1985 • Matthew Busche

 

Optimized for Chrome - Edge
and Opera browsers.